When you browse on this site, cookies collect data to enhance your experience and personalize the content and advertising you see.
Visit our Privacy Policy to learn more. By continuing to use the site, you agree to this use of cookies and data.
  • In Hungary
  • List of Countries
  • For 7 days
  • Water Temperature
  • Weather Map
  • News
  • Weather Widgets
  • user-avatar
    Login

    Hourly Weather Pohvistnevo

    Today, 18 August, Sunday

    Time Temperature Precipitation Wind Pressure Humidity
    00:00 +16°C° 0 mm 2 mps 736 mmHg 97%
    01:00 +16°C° 0 mm 2 mps 736 mmHg 97%
    02:00 +16°C° 0 mm 3 mps 737 mmHg 94%
    03:00 +14°C° 0 mm 3 mps 737 mmHg 94%
    04:00 +14°C° 0 mm 3 mps 737 mmHg 95%
    05:00 +14°C° 0 mm 3 mps 737 mmHg 96%
    06:00 +14°C° 0 mm 3 mps 737 mmHg 94%
    07:00 +16°C° 0 mm 3 mps 737 mmHg 93%
    08:00 +16°C° 0 mm 3 mps 737 mmHg 91%
    09:00 +16°C° 0 mm 3 mps 738 mmHg 89%
    10:00 +17°C° 0 mm 3 mps 738 mmHg 87%
    11:00 +18°C° 0 mm 3 mps 738 mmHg 85%
    12:00 +18°C° 0 mm 3 mps 738 mmHg 84%
    13:00 +18°C° 0 mm 3 mps 739 mmHg 82%
    14:00 +19°C° 0 mm 3 mps 739 mmHg 81%
    15:00 +19°C° 0.1 mm 3 mps 740 mmHg 82%
    16:00 +19°C° 0.1 mm 3 mps 740 mmHg 83%
    17:00 +19°C° 0.1 mm 3 mps 740 mmHg 83%
    18:00 +18°C° 0.1 mm 3 mps 740 mmHg 87%
    19:00 +17°C° 0.1 mm 2 mps 741 mmHg 91%
    20:00 +16°C° 0.1 mm 2 mps 741 mmHg 95%
    21:00 +16°C° 0 mm 2 mps 741 mmHg 95%
    22:00 +15°C° 0 mm 2 mps 741 mmHg 96%
    23:00 +14°C° 0 mm 2 mps 741 mmHg 97%

    Tomorrow, 19 August, Monday

    Time Temperature Precipitation Wind Pressure Humidity
    00:00 +14°C° 0 mm 2 mps 741 mmHg 97%
    01:00 +14°C° 0 mm 2 mps 742 mmHg 97%
    02:00 +14°C° 0 mm 2 mps 742 mmHg 97%
    03:00 +14°C° 0 mm 2 mps 742 mmHg 97%
    04:00 +13°C° 0 mm 2 mps 743 mmHg 97%
    05:00 +13°C° 0 mm 2 mps 743 mmHg 97%
    06:00 +15°C° 0 mm 2 mps 743 mmHg 93%
    07:00 +17°C° 0 mm 2 mps 744 mmHg 88%
    08:00 +18°C° 0 mm 2 mps 744 mmHg 83%
    09:00 +20°C° 0 mm 2 mps 744 mmHg 77%
    10:00 +21°C° 0 mm 3 mps 744 mmHg 71%
    11:00 +22°C° 0 mm 3 mps 745 mmHg 66%
    12:00 +24°C° 0 mm 3 mps 745 mmHg 63%
    13:00 +25°C° 0 mm 3 mps 745 mmHg 61%
    14:00 +25°C° 0 mm 3 mps 745 mmHg 58%
    15:00 +25°C° 0 mm 3 mps 745 mmHg 61%
    16:00 +25°C° 0 mm 2 mps 745 mmHg 63%
    17:00 +25°C° 0 mm 1 mps 746 mmHg 66%
    18:00 +23°C° 0 mm 1 mps 746 mmHg 70%
    19:00 +21°C° 0 mm 1 mps 746 mmHg 74%
    20:00 +19°C° 0 mm 1 mps 746 mmHg 78%
    21:00 +19°C° 0 mm 1 mps 746 mmHg 79%
    22:00 +19°C° 0 mm 1 mps 746 mmHg 80%
    23:00 +18°C° 0 mm 1 mps 746 mmHg 81%

    Day after tomorrow, 20 August, Tuesday

    Time Temperature Precipitation Wind Pressure Humidity
    00:00 +18°C° 0 mm 1 mps 746 mmHg 81%
    01:00 +18°C° 0 mm 1 mps 746 mmHg 81%
    02:00 +18°C° 0 mm 1 mps 747 mmHg 81%
    03:00 +16°C° 0 mm 1 mps 747 mmHg 82%
    04:00 +16°C° 0 mm 1 mps 747 mmHg 83%
    05:00 +16°C° 0 mm 1 mps 747 mmHg 84%
    06:00 +19°C° 0 mm 1 mps 747 mmHg 78%
    07:00 +21°C° 0 mm 1 mps 748 mmHg 72%
    08:00 +22°C° 0 mm 1 mps 748 mmHg 67%
    09:00 +24°C° 0 mm 1 mps 748 mmHg 63%
    10:00 +25°C° 0 mm 1 mps 748 mmHg 59%
    11:00 +26°C° 0 mm 2 mps 748 mmHg 55%
    12:00 +27°C° 0 mm 2 mps 748 mmHg 53%
    13:00 +28°C° 0 mm 2 mps 748 mmHg 52%
    14:00 +28°C° 0 mm 2 mps 748 mmHg 50%
    15:00 +28°C° 0 mm 1 mps 748 mmHg 54%
    16:00 +28°C° 0 mm 1 mps 748 mmHg 57%
    17:00 +27°C° 0 mm 1 mps 748 mmHg 61%
    18:00 +26°C° 0 mm 1 mps 748 mmHg 64%
    19:00 +22°C° 0 mm 0 mps 748 mmHg 68%
    20:00 +20°C° 0 mm 0 mps 748 mmHg 71%
    21:00 +20°C° 0 mm 0 mps 748 mmHg 73%
    22:00 +19°C° 0 mm 0 mps 748 mmHg 74%
    23:00 +19°C° 0 mm 0 mps 748 mmHg 75%

    21 August, Wednesday

    Time Temperature Precipitation Wind Pressure Humidity
    00:00 +19°C° 0 mm 0 mps 748 mmHg 77%
    01:00 +18°C° 0 mm 0 mps 748 mmHg 78%
    02:00 +18°C° 0 mm 0 mps 748 mmHg 80%
    03:00 +18°C° 0 mm 0 mps 748 mmHg 81%
    04:00 +18°C° 0 mm 0 mps 748 mmHg 82%
    05:00 +17°C° 0 mm 0 mps 748 mmHg 82%
    06:00 +19°C° 0 mm 0 mps 748 mmHg 78%
    07:00 +23°C° 0 mm 1 mps 748 mmHg 73%
    08:00 +25°C° 0 mm 1 mps 749 mmHg 68%
    09:00 +26°C° 0 mm 1 mps 748 mmHg 65%
    10:00 +27°C° 0 mm 1 mps 748 mmHg 62%
    11:00 +28°C° 0 mm 2 mps 748 mmHg 59%
    12:00 +28°C° 0 mm 2 mps 748 mmHg 57%
    13:00 +29°C° 0 mm 2 mps 748 mmHg 55%
    14:00 +29°C° 0 mm 2 mps 747 mmHg 53%
    15:00 +29°C° 0 mm 2 mps 747 mmHg 57%
    16:00 +29°C° 0 mm 2 mps 747 mmHg 60%
    17:00 +29°C° 0 mm 2 mps 746 mmHg 63%
    18:00 +27°C° 0 mm 2 mps 746 mmHg 68%
    19:00 +25°C° 0 mm 2 mps 746 mmHg 72%
    20:00 +24°C° 0 mm 2 mps 746 mmHg 77%
    21:00 +23°C° 0 mm 2 mps 746 mmHg 79%
    22:00 +22°C° 0 mm 1 mps 746 mmHg 81%
    23:00 +22°C° 0 mm 1 mps 746 mmHg 83%

    22 August, Thursday

    Time Temperature Precipitation Wind Pressure Humidity
    00:00 +21°C° 0 mm 1 mps 746 mmHg 84%
    01:00 +21°C° 0 mm 1 mps 746 mmHg 86%
    02:00 +21°C° 0 mm 1 mps 746 mmHg 87%
    03:00 +20°C° 0 mm 1 mps 745 mmHg 87%
    04:00 +20°C° 0 mm 1 mps 745 mmHg 88%
    05:00 +20°C° 0 mm 1 mps 745 mmHg 88%
    06:00 +21°C° 0 mm 1 mps 745 mmHg 82%
    07:00 +23°C° 0 mm 1 mps 745 mmHg 75%
    08:00 +24°C° 0 mm 1 mps 745 mmHg 69%
    09:00 +26°C° 0 mm 1 mps 745 mmHg 64%
    10:00 +27°C° 0 mm 1 mps 744 mmHg 59%
    11:00 +28°C° 0 mm 1 mps 744 mmHg 54%
    12:00 +29°C° 0 mm 1 mps 744 mmHg 51%
    13:00 +29°C° 0 mm 1 mps 744 mmHg 48%
    14:00 +29°C° 0 mm 1 mps 744 mmHg 46%
    15:00 +29°C° 0 mm 1 mps 744 mmHg 49%
    16:00 +29°C° 0 mm 1 mps 744 mmHg 53%
    17:00 +29°C° 0 mm 1 mps 744 mmHg 57%
    18:00 +27°C° 0 mm 2 mps 744 mmHg 63%
    19:00 +25°C° 0 mm 3 mps 744 mmHg 70%
    20:00 +22°C° 0 mm 4 mps 744 mmHg 77%
    21:00 +21°C° 0 mm 4 mps 745 mmHg 82%
    22:00 +20°C° 0 mm 5 mps 745 mmHg 87%
    23:00 +19°C° 0 mm 5 mps 745 mmHg 92%

    23 August, Friday

    Time Temperature Precipitation Wind Pressure Humidity
    00:00 +19°C° 0 mm 5 mps 745 mmHg 91%
    01:00 +19°C° 0 mm 5 mps 745 mmHg 90%
    02:00 +19°C° 0 mm 5 mps 745 mmHg 89%
    03:00 +17°C° 0 mm 5 mps 746 mmHg 88%
    04:00 +17°C° 0 mm 5 mps 746 mmHg 86%
    05:00 +16°C° 0 mm 5 mps 746 mmHg 84%
    06:00 +16°C° 0 mm 5 mps 746 mmHg 83%
    07:00 +17°C° 0 mm 5 mps 746 mmHg 81%
    08:00 +17°C° 0 mm 5 mps 746 mmHg 79%
    09:00 +19°C° 0 mm 5 mps 746 mmHg 76%
    10:00 +19°C° 0 mm 5 mps 747 mmHg 74%
    11:00 +20°C° 0 mm 5 mps 747 mmHg 71%
    12:00 +20°C° 0 mm 5 mps 747 mmHg 69%
    13:00 +21°C° 0 mm 5 mps 746 mmHg 68%
    14:00 +22°C° 0 mm 4 mps 746 mmHg 66%
    15:00 +21°C° 0 mm 4 mps 746 mmHg 68%
    16:00 +21°C° 0 mm 4 mps 746 mmHg 70%
    17:00 +21°C° 0 mm 3 mps 746 mmHg 71%
    18:00 +20°C° 0 mm 4 mps 746 mmHg 72%
    19:00 +20°C° 0 mm 4 mps 746 mmHg 72%
    20:00 +19°C° 0 mm 4 mps 746 mmHg 72%
    21:00 +19°C° 0 mm 4 mps 746 mmHg 72%
    22:00 +18°C° 0 mm 4 mps 746 mmHg 72%
    23:00 +18°C° 0 mm 4 mps 746 mmHg 72%
    Show more